ראשי / חיפושים אחרונים

חיפושים אחרונים

לוחית
סוג רכב
דגם
שנה
תאריך חיפוש
שעת חיפוש
4627070 סאן יאנג טיואן - 2009 31/08/2026 05:26:33
5166614 מרצדס גרמניה CLS350 2006 31/08/2026 05:26:31
4187038 סקודה צ'כיה FABIA SPACE 2016 31/08/2026 05:26:30
2628232 שברולט קנדה IMPALA 2014 31/08/2026 05:26:27
1005287 וולבו שבדיה S90 T6 2017 31/08/2026 05:26:23
28861101 מ.ג סין ZS 2019 31/08/2026 05:26:22
9808859 הונדה טורקיה CIVIC 2006 31/08/2026 05:26:19
1190555 פיאט איטליה - 1985 31/08/2026 05:26:17
67667804 סי.אף.מוטו.סין - 2026 31/08/2026 05:26:12
9658652 פולקסווגן מקסיקה JETTA 2014 31/08/2026 05:26:08
56100003 לקסוס יפן LEXUS LM350H 2023 31/08/2026 05:26:08
2209061 לנדיני איטליה - 2007 31/08/2026 05:26:07
5831779 קיה סלובקיה CEED 2012 31/08/2026 05:26:06
6670238 קיה סלובקיה CEED 2016 31/08/2026 05:26:03
75319701 סוזוקי הונגריה SX4 CROSSOVER 2019 31/08/2026 05:26:03
39194702 פיג'ו סלובקיה 208 2021 31/08/2026 05:26:01
1288860 טויוטה בריטניה COROLLA RUNX 2007 31/08/2026 05:26:00
5911315 ביואיק ארהב" - 1995 31/08/2026 05:26:00
8321267 הונדה יפן ACCORD 2008 31/08/2026 05:25:57
3302066 מיצובישי יפן GRANDIS 2008 31/08/2026 05:25:56
19755402 יונדאי טורקיה I10 2020 31/08/2026 05:25:54
4303167 ח.קליין בעמ" - 2011 31/08/2026 05:25:54
74033303 טויוטה יפן LAND CRUISER 2024 31/08/2026 05:25:53
74260404 ג'י.אמ.סי ארהב" HUMMER EV SUV 2026 31/08/2026 05:25:51
52843202 טויוטה טורקיה C-HR HYBRID 2021 31/08/2026 05:25:51
87683003 מ.ג סין MG3 2025 31/08/2026 05:25:49
9663154 מזדה יפן MAZDA 3 2016 31/08/2026 05:25:47
2962532 איסוזו תאילנד PICK - UP 2014 31/08/2026 05:25:45
7672180 פיאט טורקיה FIAT TIPO 2016 31/08/2026 05:25:44
1858010 ניסאן ספרד TERRANO 2001 31/08/2026 05:25:41
8937036 מיצובישי יפן PAJERO 2003 31/08/2026 05:25:41
1013260 טויוטה יפן COROLLA 2006 31/08/2026 05:25:40
5225869 ניסאן יפן PICK-UP 2009 31/08/2026 05:25:38
1624437 טויוטה יפן LAND CRUISER 2016 31/08/2026 05:25:36
80791103 סיאט ספרד ARONA 2024 31/08/2026 05:25:29
66725801 סקודה צ'כיה KODIAQ 2019 31/08/2026 05:25:28
1224262 טויוטה טורקיה COROLLA 2007 31/08/2026 05:25:27
25899404 מרצדס בנץ גרמנ - 2025 31/08/2026 05:25:26
9532955 ב מ וו גרמניה - 1981 31/08/2026 05:25:25
4570354 פולקסווגן ספרד POLO 2015 31/08/2026 05:25:24
67667804 סי.אף.מוטו.סין - 2026 31/08/2026 05:25:23
67667804 סי.אף.מוטו.סין - 2026 31/08/2026 05:25:23
67667804 סי.אף.מוטו.סין - 2026 31/08/2026 05:25:23
67667804 סי.אף.מוטו.סין - 2026 31/08/2026 05:25:23
67667804 סי.אף.מוטו.סין - 2026 31/08/2026 05:25:23
1364074 יונדאי הודו I20 2010 31/08/2026 05:25:22
2814323 סובארו יפן B4 2002 31/08/2026 05:25:21
3363439 שברולט ארהב" MALIBU LT 2016 31/08/2026 05:25:20
2006537 טויוטה ארהב" CAMRY HYBRID 2016 31/08/2026 05:25:20
67667804 סי.אף.מוטו.סין - 2026 31/08/2026 05:25:19
6321231 וולבו צרפת - 2015 31/08/2026 05:25:18
2987468 סיטרואן תורכיה BERLINGO 2009 31/08/2026 05:25:16
39984902 מיצובישי תאילנד L200 2021 31/08/2026 05:25:15
3388973 סוזוקי יפן SX4 2010 31/08/2026 05:25:13
50725404 צ'רי סין TIGGO8PRO PHEV 2025 31/08/2026 05:25:12
9831078 טויוטה ארהב" - 2015 31/08/2026 05:25:09
86730001 סוזוקי יפן IGNIS 2020 31/08/2026 05:25:06
9218824 שברולט קנדה IMPALA 2000 31/08/2026 05:25:05
43100003 ב מ וו ארהב" XM 50E 2024 31/08/2026 05:25:03
8908851 פולקסווגן גרמניה PASSAT 2004 31/08/2026 05:25:02
68232202 פיג'ו צרפת 3008 2022 31/08/2026 05:24:54
47014202 ניסאן בריטניה QASHQAI 2021 31/08/2026 05:24:52
1029438 סוזוקי הונגריה SX4 CROSSOVER 2016 31/08/2026 05:24:50
1206323 סובארו יפן אימפרזה 0061 TA 1998 31/08/2026 05:24:48
26339904 שברולט ארהב" - 2026 31/08/2026 05:24:46
16838803 קיה קוריאה הדרומית SELTOS 2022 31/08/2026 05:24:44
3361771 מזדה יפן MAZDA 3 2010 31/08/2026 05:24:42
93289901 סמארט צרפת - 2023 31/08/2026 05:24:39
8835659 פורד תורכיה TOURNEO CONNECT 2005 31/08/2026 05:24:38
3731837 מיצובישי יפן OUTLANDER 2015 31/08/2026 05:24:35
5677760 מ א ן גרמניה - 2008 31/08/2026 05:24:35
15095903 טויוטה יפן RAV 4 HYBRID 2022 31/08/2026 05:24:34
47613701 איסוזו תאילנד PICK-UP 2018 31/08/2026 05:24:33
4242076 יונדאי הודו I10 2011 31/08/2026 05:24:30
9331865 פורד ספרד FOCUS 2008 31/08/2026 05:24:30
1972939 סובארו יפן XV 2016 31/08/2026 05:24:28
85060102 מזדה יפן MAZDA CX-30 2022 31/08/2026 05:24:28
47432502 איסוזו תאילנד D-MAX 2021 31/08/2026 05:24:27
4110338 אאודי בלגיה A1 2016 31/08/2026 05:24:26
42487802 רנו ספרד MEGANE 2021 31/08/2026 05:24:26
1033675 סיטרואן סלובקיה C3 PICASSO 2011 31/08/2026 05:24:24
3291859 יונדאי קוריאה הדרומית ACCENT 2005 31/08/2026 05:24:23
47088601 גולדן דרגון סי - 2018 31/08/2026 05:24:17
16088402 טויוטה יפן RAV 4 2020 31/08/2026 05:24:15
88431902 יונדאי טורקיה I20 2022 31/08/2026 05:24:14
2798284 רנו צרפת - 2017 31/08/2026 05:24:14
31531201 סובארו יפן XV 2018 31/08/2026 05:24:12
85386302 טסלה סין MODEL 3 2022 31/08/2026 05:24:10
3707714 טויוטה יפן LAND CRUISER 2006 31/08/2026 05:24:09
29274501 ב מ וו גרמניה 118I 2017 31/08/2026 05:24:07
1788212 פולקסווגן מקסיקה JETTA 2012 31/08/2026 05:24:05
19950204 צ'רי סין TIGGO7 PRO PHEV 2025 31/08/2026 05:24:04
41195402 קיה קוריאה הדרומית PICANTO 2021 31/08/2026 05:24:02
15626702 רנו טורקיה MEGANE 2020 31/08/2026 05:24:01
74702703 טויוטה יפן LAND CRUISER 2024 31/08/2026 05:24:00
7972937 ניסאן יפן X-TRAIL 2016 31/08/2026 05:23:59
44187003 קיה סלובקיה SPORTAGE 2023 31/08/2026 05:23:59
6074853 סיאט ספרד IBIZA FLOW 2014 31/08/2026 05:23:56
2031337 טויוטה יפן PRIUS 2016 31/08/2026 05:23:55
6143757 הונדה יפן HR-V 2004 31/08/2026 05:23:54
70634103 פולאריס פולין - 2024 31/08/2026 05:23:54
8153970 פולקסווגן מקסיקה JETTA 2010 31/08/2026 05:23:49
8601712 שברולט קוריאה הדרומית SONIC LT 2013 31/08/2026 05:23:49
1268032 יונדאי טורקיה I10 2015 31/08/2026 05:23:49
1592154 רנו טורקיה FLUENCE 2014 31/08/2026 05:23:47
20997504 ג'י.אמ.סי ארהב" HUMMER EV SUV 2025 31/08/2026 05:23:47
4642114 פורד ספרד FOCUS 2006 31/08/2026 05:23:46
76401502 יונדאי צ'כיה TUCSON 2022 31/08/2026 05:23:46
77402103 מזדה יפן MAZDA CX-5 2024 31/08/2026 05:23:44
2413567 פולקסווגן פורטוגל SCIROCCO 2009 31/08/2026 05:23:43
7546937 דאציה מרוקו LODGY 2016 31/08/2026 05:23:43
21603502 אקסיס טיוואן - 2020 31/08/2026 05:23:41
26071401 סקודה צ'כיה NEW OCTAVIA 2017 31/08/2026 05:23:40
12659701 קיה קוריאה הדרומית NIRO 2017 31/08/2026 05:23:39
6606526 סקודה צ'כיה OCTAVIA 2024 31/08/2026 05:23:38
3841666 יונדאי קוריאה הדרומית I30 2008 31/08/2026 05:23:38
2329931 יונדאי טורקיה I10 2014 31/08/2026 05:23:35
85441901 דוקטי איטליה - 2025 31/08/2026 05:23:35
7553480 פולאריס פולין - 2017 31/08/2026 05:23:34
6010056 מרצדס בנץ ספרד 112CDI VITO 2004 31/08/2026 05:23:31
2834912 פולקסווגן מקסיקה JETTA 2013 31/08/2026 05:23:31
29364303 סוזוקי יפן SWIFT 2022 31/08/2026 05:23:30
16164403 יונדאי קוריאה הדרומית ELANTRA HEV 2022 31/08/2026 05:23:29
2659730 ב מ וו ארהב" X4 XDRIVE 20I 2016 31/08/2026 05:23:27
74380903 טויוטה טורקיה TOYOTA C-HR 2024 31/08/2026 05:23:25
18232204 לנדרובר סלובקיה DEFENDER 2025 31/08/2026 05:23:24
9166852 אאודי גרמניה A7 2014 31/08/2026 05:23:24
5156462 יונדאי קוריאה הדרומית GETZ 2007 31/08/2026 05:23:23
1202264 שברולט קוריאה הדרומית CAPTIVA 2008 31/08/2026 05:23:22
4907351 פורד גרמניה FIESTA 2003 31/08/2026 05:23:20
2850066 יונדאי טורקיה ACCENT 2008 31/08/2026 05:23:19
30879102 סיטרואן סלובקיה C3 2021 31/08/2026 05:23:19
87612501 מרצדס גרמניה GLA200 2020 31/08/2026 05:23:14
2250761 טויוטה יפן COROLLA 2007 31/08/2026 05:23:14
1517765 הונדה יפן ACCORD 2007 31/08/2026 05:23:11
3327273 מרוטי סוזוקי הודו ALTO 2010 31/08/2026 05:23:10
22400901 מרוטי סוזוקי הודו BALENO 2017 31/08/2026 05:23:09
44036002 סקודה צ'כיה SUPERB FL 2021 31/08/2026 05:23:09
35067001 סקודה צ'כיה KODIAQ 2017 31/08/2026 05:23:08
86767101 מרוטי סוזוקי הודו BALENO 2020 31/08/2026 05:23:08
51256703 טסלה גרמניה MODEL Y 2023 31/08/2026 05:23:06
5268012 סקודה צ'כיה FABIA HATCH 2013 31/08/2026 05:23:05
56487602 יונדאי טורקיה I20 2021 31/08/2026 05:23:04
9844971 ב מ וו ארהב" - 2010 31/08/2026 05:23:00
4218308 יגואר בריטניה F-TYPE 2016 31/08/2026 05:22:59
55090901 מרצדס גרמניה GLA200 2019 31/08/2026 05:22:59
1011932 יונדאי קוריאה הדרומית I35 2014 31/08/2026 05:22:58
15836603 מיצובישי יפן ECLIPSE CROSS 2022 31/08/2026 05:22:56
73426303 בי ווי די סין SEAL 2024 31/08/2026 05:22:55
79343703 סוזוקי הונגריה S-CROSS 2024 31/08/2026 05:22:54
11905704 יונדאי קוריאה הדרומית IONIQ5 2025 31/08/2026 05:22:51
10954202 פיג'ו ספרד 2008 2020 31/08/2026 05:22:50
87998301 יונדאי טורקיה - 2019 31/08/2026 05:22:49
6917203 סובארו יפן - 1992 31/08/2026 05:22:48
4429813 שברולט קוריאה הדרומית CAPTIVA 2012 31/08/2026 05:22:47
72916701 יונדאי קוריאה הדרומית KONA 2019 31/08/2026 05:22:45
4738863 פורד ספרד FOCUS 2008 31/08/2026 05:22:44
72131401 שברולט קוריאה הדרומית SPARK 2020 31/08/2026 05:22:43
62482503 יונדאי קוריאה הדרומית ELANTRA HEV 2024 31/08/2026 05:22:42
8119956 פורד ספרד FOCUS 2004 31/08/2026 05:22:40
1100387 הונדה בריטניה CIVIC 2017 31/08/2026 05:22:39
61940201 סוזוקי הונגריה VITARA 2019 31/08/2026 05:22:39
1140161 שברולט קוריאה הדרומית AVEO 2007 31/08/2026 05:22:37
56903403 יונדאי קוריאה הדרומית KONA HYBRID 2024 31/08/2026 05:22:36
2828060 סובארו יפן IMPREZA 2006 31/08/2026 05:22:35
3773163 דייהטסו יפן .SIRION 2008 31/08/2026 05:22:34
6251958 סוזוקי הונגריה SWIFT 2014 31/08/2026 05:22:31
61324101 ב מ וו גרמניה X1 SDRIVE 18I 2020 31/08/2026 05:22:31
2865576 אביב סוכנויות - 2012 31/08/2026 05:22:27
5583338 סקודה צ'כיה NEW SUPERB 2017 31/08/2026 05:22:26
6707680 סיטרואן צרפת JUMPY 2017 31/08/2026 05:22:25
6046937 מיצובישי יפן OUTLANDER 2016 31/08/2026 05:22:25
1216337 טויוטה ארהב" CAMRY HYBRID 2016 31/08/2026 05:22:22
14864102 אפרתי עודד ישר - 2021 31/08/2026 05:22:21
9823567 סוזוקי יפן SX4 2008 31/08/2026 05:22:19
27705904 יונדאי קוריאה הדרומית KONA HYBRID 2025 31/08/2026 05:22:19
6049112 יונדאי צ'כיה I30 2012 31/08/2026 05:22:17
2600967 סיאט ספרד IBIZA 2009 31/08/2026 05:22:16
9493352 אאודי גרמניה A3 2014 31/08/2026 05:22:15
1016235 ניסאן ספרד LARGO 2001 31/08/2026 05:22:14
85636603 סקודה צ'כיה KAROQ FL 2024 31/08/2026 05:22:13
2977476 דאף אנגליה - 2012 31/08/2026 05:22:11
1135168 סוזוקי יפן SWIFT 2009 31/08/2026 05:22:07
7655562 מזדה יפן MX-5 RHT 2007 31/08/2026 05:22:06
6093916 ב מ וו גרמניה 330I 2008 31/08/2026 05:22:05
72803301 פיאט איטליה - 2019 31/08/2026 05:22:05
1388573 יונדאי צ'כיה I30 2010 31/08/2026 05:22:04
60764602 ג'יפ ארהב" WRANGLER 2021 31/08/2026 05:22:03
11299001 טויוטה טורקיה C-HR HYBRID 2017 31/08/2026 05:22:00
2510034 מרצדס גרמניה GLC 250 4MATIC 2015 31/08/2026 05:21:59
40554003 סקודה צ'כיה OCTAVIA 2023 31/08/2026 05:21:55
4067206 ניסאן יפן - 1994 31/08/2026 05:21:53
4650413 פיאט פולין FIAT 500 1.2 2012 31/08/2026 05:21:49
84690402 ג'יפ ארהב" WRANGLER 2022 31/08/2026 05:21:44
64759701 פיג'ו צרפת 3008 2019 31/08/2026 05:21:41
6321230 טויוטה בריטניה AURIS HYBRID 2014 31/08/2026 05:21:39
48039303 יונדאי הודו ACCENT 2023 31/08/2026 05:21:37
1269167 פיאט איטליה GRANDE PUNT0 2009 31/08/2026 05:21:35
8366379 טויוטה צרפת YARIS 2012 31/08/2026 05:21:34
71224503 מיצובישי יפן OUTLANDER 2024 31/08/2026 05:21:33
וואטסאפ